[[{"header":{"parameterUnit":"m.s-1","parameterCategory":1,"la1":30.2991,"la2":30.254,"lo1":-89.0895,"lo2":-89.0444,"dy":0.0017,"dx":0.0017,"nx":28,"ny":28,"refTime":"2023-09-09T09:00:00:Z","depth":0,"parameterNumber":2,"parameterNumberName":"U-component_of_WINDS"},"data":[0,0,0,0,0,0,0,0,0,0,0,0,0,0,0,0,0,0,0,0,0,0,0,0,0,0,0,0,0,0,0,0,0,0,0,0,0,0,0,0,0,0,0,0,0,0,0,0,0,0,0,0,0,0,0,0,0,0,-1.8105,-1.8105,0,-1.8173,-1.8173,-1.8174,-1.8144,-1.8142,-1.8141,-1.8139,-1.8208,-1.8211,-1.8215,0,0,0,0,0,0,0,0,0,0,0,0,0,-1.7948,-1.7951,-1.8105,-1.8105,-1.8106,-1.8172,-1.8173,-1.8174,-1.8144,-1.8142,-1.814,-1.8138,-1.8207,-1.8211,-1.8215,0,0,0,0,0,0,0,0,0,0,0,0,0,-1.8016,-1.7952,-1.8104,-1.8099,-1.81,-1.8172,-1.8173,-1.8175,-1.8145,-1.8142,-1.814,-1.8137,-1.8206,-1.821,-1.8215,-1.8297,0,0,-1.8231,-1.8233,0,0,0,0,0,0,0,0,-1.8012,-1.8022,-1.8099,-1.81,-1.81,-1.8147,-1.8143,-1.8216,-1.8145,-1.8128,-1.8139,-1.8136,-1.819,-1.8196,-1.8214,-1.83,-1.8303,-1.8231,-1.8235,-1.8237,-1.8238,0,0,0,0,0,0,0,-1.8008,-1.8019,-1.8131,-1.81,-1.8101,-1.8093,-1.81,-1.8157,-1.8172,-1.8129,-1.8127,-1.8135,-1.8189,-1.8209,-1.8216,-1.8304,-1.8231,-1.8236,-1.8239,-1.8241,-1.8461,-1.8464,0,0,0,0,0,0,-1.8003,-1.8015,-1.8129,-1.8133,-1.8049,-1.8098,-1.8106,-1.8135,-1.8171,-1.8174,-1.8137,-1.8134,-1.8202,-1.821,-1.8218,-1.8316,-1.8237,-1.8242,-1.8244,-1.8458,-1.8461,-1.8464,0,0,0,0,0,0,-1.8,-1.8014,-1.8127,-1.8074,-1.8088,-1.8104,-1.8136,-1.8137,-1.8157,-1.8178,-1.818,-1.8155,-1.82,-1.8211,-1.8278,-1.8318,-1.8244,-1.8248,-1.8455,-1.8459,-1.8463,-1.8512,0,0,0,0,0,0,-1.7996,-1.8013,-1.8044,-1.8075,-1.8091,-1.8186,-1.8139,-1.814,-1.8166,-1.8162,-1.8195,-1.8198,-1.8199,-1.827,-1.8283,-1.8323,-1.8252,-1.8451,-1.8457,-1.8462,-1.8507,-1.8518,-1.8527,0,0,0,0,0,-1.799,-1.8055,-1.8046,-1.806,-1.813,-1.8188,-1.8197,-1.8197,-1.8169,-1.8201,-1.8214,-1.8197,-1.8311,-1.8277,-1.8291,-1.8334,-1.8449,-1.8455,-1.8461,-1.8503,-1.8516,-1.8527,0,0,0,0,0,0,-1.8028,-1.8059,-1.8049,-1.8126,-1.8155,-1.8183,-1.8222,-1.8211,-1.8248,-1.8242,-1.8241,-1.8249,-1.8318,-1.8333,-1.8294,-1.8415,-1.8376,-1.8385,-1.8403,-1.8415,-1.8425,-1.842,-1.8257,0,0,0,0,0,-1.8046,-1.809,-1.8115,-1.818,-1.8195,-1.8206,-1.8232,-1.8229,-1.8259,-1.8271,-1.8289,-1.8318,-1.8361,-1.8389,-1.8429,-1.8509,-1.8516,-1.8546,-1.8555,-1.8563,-1.8571,-1.8615,-1.8628,-1.8485,-1.8485,-1.8485,0,0,-1.8082,-1.8104,-1.8132,-1.8188,-1.821,-1.8256,-1.8217,-1.8267,-1.8301,-1.8278,-1.8343,-1.8357,-1.839,-1.8464,-1.8497,-1.8478,-1.8612,-1.8571,-1.8577,-1.8581,-1.8623,-1.8636,-1.8648,-1.8489,-1.8489,-1.8488,0,0,-1.8171,-1.8193,-1.825,-1.8273,-1.8307,-1.8314,-1.8328,-1.8358,-1.8367,-1.8431,-1.8415,-1.8456,-1.8529,-1.8553,-1.8575,-1.8674,-1.8659,-1.8687,-1.8738,-1.878,-1.8791,-1.8801,-1.8837,-1.8849,-1.8695,-1.8695,-1.8695,0,-1.8212,-1.8281,-1.828,-1.8332,-1.8357,-1.8339,-1.8397,-1.8419,-1.8464,-1.8482,-1.846,-1.8552,-1.8573,-1.8652,-1.8676,-1.8694,-1.871,-1.8683,-1.879,-1.88,-1.8809,-1.8843,-1.8856,-1.8698,-1.8698,-1.8697,-1.8697,0,-1.8329,-1.8378,-1.8419,-1.8464,-1.8494,-1.8548,-1.8556,-1.8586,-1.8581,-1.8591,-1.8657,-1.8681,-1.8726,-1.8745,-1.874,-1.8824,-1.8811,-1.879,-1.875,-1.8826,-1.8858,-1.8871,-1.8703,-1.8701,-1.8701,-1.87,0,0,-1.8445,-1.8488,-1.8504,-1.8524,-1.856,-1.8597,-1.8651,-1.8695,-1.8721,-1.8753,-1.8798,-1.886,-1.8841,-1.8866,-1.8864,-1.8902,-1.8979,-1.8876,-1.8876,-1.8894,-1.9072,-1.9087,-1.9102,-1.8969,-1.8972,-1.8974,-1.9069,0,-1.8537,-1.8631,-1.8632,-1.8719,-1.8763,-1.8747,-1.8793,-1.8821,-1.8831,-1.887,-1.8881,-1.8926,-1.8897,-1.8912,-1.8948,-1.8962,-1.9014,-1.8955,-1.9011,-1.9013,-1.9003,-1.9119,-1.9135,-1.9224,-1.9081,-1.9083,-1.9085,0,-1.8657,-1.8693,-1.8784,-1.8814,-1.8833,-1.8875,-1.8915,-1.8953,-1.8984,-1.8988,-1.9016,-1.9009,-1.9064,-1.9023,-1.9098,-1.9058,-1.9081,-1.9091,-1.9094,-1.9099,-1.9053,-1.9126,-1.9252,-1.9265,-1.9104,-1.9103,-1.9101,0,-1.8731,-1.8803,-1.8867,-1.8884,-1.8921,-1.8951,-1.8968,-1.8996,-1.9022,-1.9058,-1.9075,-1.9116,-1.9139,-1.9171,-1.9175,-1.9145,-1.9251,-1.921,-1.9256,-1.9256,-1.9279,-1.9277,-1.941,-1.9294,-1.9294,-1.9294,-1.9294,0,-1.8834,-1.889,-1.8901,-1.894,-1.9003,-1.9003,-1.9065,-1.9079,-1.9105,-1.9146,-1.9135,-1.9174,-1.9177,-1.9217,-1.9221,-1.9282,-1.9293,-1.9298,-1.9298,-1.9299,-1.9298,-1.9314,-1.9308,-1.9298,-1.9297,-1.9296,-1.9295,0,-1.8928,-1.8937,-1.9005,-1.9035,-1.9043,-1.9088,-1.9113,-1.9151,-1.916,-1.9213,-1.9225,-1.924,-1.9287,-1.9294,-1.9349,-1.9351,-1.9425,-1.9419,-1.9415,-1.9414,-1.9459,-1.9455,-1.9606,-1.9626,-1.9498,-1.9499,-1.95,0,-1.8992,-1.9035,-1.907,-1.9097,-1.9115,-1.9159,-1.9186,-1.9189,-1.9217,-1.9256,-1.9288,-1.9334,-1.9371,-1.9446,-1.9462,-1.9504,-1.9499,-1.9549,-1.9505,-1.9504,-1.9499,-1.9496,-1.95,-1.9557,-1.9558,-1.956,-1.956,0,-1.9106,-1.9109,-1.9148,-1.919,-1.9223,-1.9256,-1.9287,-1.931,-1.9316,-1.9349,-1.9397,-1.9426,-1.9482,-1.9527,-1.9569,-1.9586,-1.9575,-1.9574,-1.9587,-1.9588,-1.9584,-1.9586,-1.9438,-1.9571,-1.957,-1.9569,-1.9568,-1.9568,-1.9187,-1.9225,-1.9255,-1.9299,-1.9323,-1.9352,-1.9389,-1.9403,-1.9443,-1.9489,-1.9489,-1.9541,-1.9571,-1.9626,-1.9645,-1.9687,-1.967,-1.9689,-1.9694,-1.9698,-1.9702,-1.9578,-1.9694,-1.9694,-1.9694,-1.9693,-1.9693,0,-1.93,-1.9319,-1.936,-1.9404,-1.9439,-1.9426,-1.9459,-1.9489,-1.9536,-1.9565,-1.9601,-1.9656,-1.97,-1.972,-1.9763,-1.9792,-1.9788,-1.9804,-1.9801,-1.9805,-1.9714,-1.9699,-1.9806,-1.9806,-1.9806,-1.9806,-1.9806,-1.9806,-1.9363,-1.9426,-1.9432,-1.9506,-1.9524,-1.9576,-1.9596,-1.9623,-1.9646,-1.9708,-1.9745,-1.9757,-1.9782,-1.9828,-1.9867,-1.9872,-1.9888,-1.9906,-1.9908,-1.9823,-1.9812,-1.9801,-1.9786,-1.991,-1.991,-1.9995,-1.9996,-1.9997]},{"header":{"parameterUnit":"m.s-1","parameterCategory":1,"la1":30.2991,"la2":30.254,"lo1":-89.0895,"lo2":-89.0444,"dy":0.0017,"dx":0.0017,"nx":28,"ny":28,"refTime":"2023-09-09T09:00:00:Z","depth":0,"parameterNumber":3,"parameterNumberName":"V-component_of_WINDS"},"data":[0,0,0,0,0,0,0,0,0,0,0,0,0,0,0,0,0,0,0,0,0,0,0,0,0,0,0,0,0,0,0,0,0,0,0,0,0,0,0,0,0,0,0,0,0,0,0,0,0,0,0,0,0,0,0,0,0,0,-2.7815,-2.7816,0,-2.7949,-2.7951,-2.7952,-2.7931,-2.7928,-2.7926,-2.7924,-2.8057,-2.8063,-2.8069,0,0,0,0,0,0,0,0,0,0,0,0,0,-2.7535,-2.754,-2.7815,-2.7816,-2.7818,-2.7949,-2.7951,-2.7953,-2.7931,-2.7928,-2.7925,-2.7923,-2.8056,-2.8062,-2.8069,0,0,0,0,0,0,0,0,0,0,0,0,0,-2.7661,-2.7542,-2.7814,-2.7823,-2.7825,-2.7949,-2.7951,-2.7953,-2.7932,-2.7928,-2.7925,-2.7921,-2.8053,-2.8062,-2.807,-2.8192,0,0,-2.8096,-2.81,0,0,0,0,0,0,0,0,-2.7654,-2.7672,-2.782,-2.7823,-2.7825,-2.792,-2.7901,-2.8033,-2.7932,-2.7891,-2.7924,-2.792,-2.8014,-2.8026,-2.8058,-2.8198,-2.8204,-2.8097,-2.8102,-2.8106,-2.8108,0,0,0,0,0,0,0,-2.7646,-2.7666,-2.7868,-2.7822,-2.7826,-2.7819,-2.7833,-2.7926,-2.797,-2.7894,-2.7893,-2.791,-2.8015,-2.805,-2.8061,-2.8206,-2.8097,-2.8104,-2.811,-2.8113,-2.8452,-2.8456,0,0,0,0,0,0,-2.7635,-2.7659,-2.7864,-2.7872,-2.773,-2.7827,-2.7843,-2.7893,-2.7969,-2.7978,-2.7912,-2.7908,-2.8037,-2.8051,-2.8066,-2.8214,-2.8106,-2.8114,-2.8119,-2.8448,-2.8453,-2.8457,0,0,0,0,0,0,-2.7629,-2.7653,-2.7858,-2.7765,-2.7791,-2.7835,-2.7892,-2.7897,-2.7933,-2.7983,-2.799,-2.7941,-2.8035,-2.8054,-2.8161,-2.8218,-2.8118,-2.8125,-2.8443,-2.8449,-2.8455,-2.851,0,0,0,0,0,0,-2.7621,-2.7651,-2.7699,-2.7766,-2.7796,-2.7953,-2.7895,-2.7902,-2.7948,-2.7944,-2.8011,-2.8019,-2.8034,-2.8148,-2.8169,-2.8228,-2.8132,-2.8439,-2.8446,-2.8453,-2.8504,-2.8517,-2.8529,0,0,0,0,0,-2.7611,-2.7709,-2.7702,-2.7727,-2.7857,-2.7956,-2.7972,-2.7989,-2.7953,-2.8001,-2.8033,-2.8017,-2.8208,-2.8159,-2.8183,-2.8245,-2.8435,-2.8444,-2.8452,-2.8498,-2.8515,-2.8529,0,0,0,0,0,0,-2.7646,-2.7718,-2.7711,-2.7833,-2.7889,-2.7952,-2.8013,-2.8006,-2.8071,-2.8064,-2.808,-2.8096,-2.8204,-2.8235,-2.818,-2.8367,-2.8316,-2.833,-2.8343,-2.8359,-2.8372,-2.8362,-2.8139,0,0,0,0,0,-2.7668,-2.7744,-2.7802,-2.7904,-2.7933,-2.7968,-2.8012,-2.802,-2.8077,-2.81,-2.814,-2.8195,-2.8267,-2.8315,-2.8384,-2.8508,-2.8522,-2.8562,-2.8574,-2.8585,-2.8597,-2.8664,-2.8682,-2.8486,-2.8485,-2.8485,0,0,-2.7714,-2.7763,-2.781,-2.7913,-2.7957,-2.8034,-2.7988,-2.8071,-2.8128,-2.8112,-2.8216,-2.8247,-2.831,-2.8426,-2.8478,-2.8455,-2.8654,-2.8596,-2.8603,-2.861,-2.8675,-2.8693,-2.871,-2.8491,-2.849,-2.8489,0,0,-2.7838,-2.7883,-2.7973,-2.8018,-2.8086,-2.8108,-2.813,-2.8195,-2.8215,-2.832,-2.8309,-2.8376,-2.8501,-2.8546,-2.8585,-2.8725,-2.8713,-2.8747,-2.8814,-2.8879,-2.8895,-2.8908,-2.8958,-2.8976,-2.8759,-2.8759,-2.8759,0,-2.7887,-2.8004,-2.802,-2.8105,-2.815,-2.814,-2.8231,-2.8273,-2.8359,-2.839,-2.8362,-2.8519,-2.856,-2.8686,-2.872,-2.8752,-2.8777,-2.874,-2.8891,-2.8905,-2.8918,-2.8966,-2.8985,-2.8762,-2.8762,-2.8762,-2.8761,0,-2.806,-2.8141,-2.8206,-2.8291,-2.8343,-2.8431,-2.8459,-2.8509,-2.8512,-2.8537,-2.8644,-2.8693,-2.8772,-2.8802,-2.8805,-2.8929,-2.8912,-2.8888,-2.8837,-2.8941,-2.8986,-2.9004,-2.8768,-2.8766,-2.8765,-2.8764,0,0,-2.821,-2.8303,-2.8327,-2.8365,-2.8438,-2.8501,-2.8587,-2.8666,-2.8709,-2.8768,-2.884,-2.8946,-2.8924,-2.8968,-2.8976,-2.9033,-2.9141,-2.9002,-2.9003,-2.9026,-2.928,-2.9298,-2.9319,-2.9133,-2.9137,-2.9139,-2.9275,0,-2.8341,-2.8496,-2.8512,-2.865,-2.8724,-2.8715,-2.879,-2.8843,-2.8868,-2.8934,-2.8962,-2.9037,-2.9002,-2.9028,-2.9085,-2.9116,-2.9192,-2.9106,-2.92,-2.9203,-2.9185,-2.9343,-2.9363,-2.9488,-2.9292,-2.9295,-2.9298,0,-2.8515,-2.8581,-2.8726,-2.8789,-2.8821,-2.8888,-2.8962,-2.9025,-2.9084,-2.9098,-2.9148,-2.9148,-2.9235,-2.9181,-2.9302,-2.9243,-2.9282,-2.9303,-2.9308,-2.9318,-2.9257,-2.9357,-2.9528,-2.9547,-2.9326,-2.9323,-2.9321,0,-2.861,-2.8735,-2.8838,-2.8871,-2.8947,-2.8994,-2.9028,-2.9083,-2.9129,-2.9193,-2.9223,-2.9295,-2.9334,-2.9389,-2.9409,-2.9368,-2.9528,-2.9476,-2.9542,-2.9542,-2.9577,-2.9574,-2.9757,-2.9601,-2.9601,-2.96,-2.96,0,-2.8755,-2.8844,-2.8882,-2.8945,-2.9045,-2.9062,-2.9159,-2.919,-2.9239,-2.9307,-2.9303,-2.9367,-2.9388,-2.9455,-2.947,-2.9567,-2.9585,-2.9598,-2.9601,-2.9599,-2.9598,-2.9625,-2.9617,-2.9605,-2.9604,-2.9603,-2.9602,0,-2.8879,-2.8908,-2.902,-2.9082,-2.91,-2.917,-2.9223,-2.9284,-2.9308,-2.9394,-2.9416,-2.9454,-2.9532,-2.9557,-2.9651,-2.9661,-2.9775,-2.977,-2.9756,-2.9756,-2.9821,-2.9815,-3.0029,-3.0058,-2.9882,-2.9884,-2.9885,0,-2.897,-2.9038,-2.9109,-2.9155,-2.9191,-2.9265,-2.9312,-2.9331,-2.9381,-2.9452,-2.9504,-2.9582,-2.9646,-2.9771,-2.9806,-2.9878,-2.9875,-2.9945,-2.9886,-2.9882,-2.9877,-2.9873,-2.988,-2.9956,-2.9958,-2.996,-2.9961,0,-2.9128,-2.9139,-2.9208,-2.9283,-2.934,-2.9399,-2.9456,-2.9493,-2.952,-2.9576,-2.9657,-2.9706,-2.9803,-2.988,-2.9954,-2.9986,-2.9978,-2.9979,-2.9998,-2.9997,-2.9986,-2.9993,-2.9787,-2.9974,-2.9973,-2.9972,-2.9971,-2.9971,-2.9238,-2.9299,-2.9358,-2.9435,-2.948,-2.9534,-2.9594,-2.9626,-2.9694,-2.9776,-2.9782,-2.987,-2.9925,-3.0023,-3.006,-3.0127,-3.0107,-3.0135,-3.0142,-3.0149,-3.0154,-2.9975,-3.0141,-3.014,-3.014,-3.014,-3.0139,0,-2.9397,-2.9434,-2.9505,-2.9586,-2.9646,-2.9634,-2.9696,-2.9747,-2.9825,-2.9878,-2.9941,-3.0034,-3.0109,-3.015,-3.0225,-3.0271,-3.0269,-3.029,-3.0287,-3.0294,-3.0168,-3.0144,-3.029,-3.029,-3.029,-3.029,-3.029,-3.029,-2.9486,-2.9588,-2.9606,-2.973,-2.9766,-2.9853,-2.989,-2.9938,-2.9981,-3.0086,-3.0148,-3.0175,-3.0223,-3.0301,-3.0369,-3.0379,-3.0406,-3.043,-3.0437,-3.0319,-3.0303,-3.0289,-3.0266,-3.0435,-3.0436,-3.0558,-3.0559,-3.056]}]]